CFG7FH GCRR-EDDM

Flight info

Callsign CFG7FH
Flight time 3h 33m
Altitude 36000
Route N0449F360 KORAL UG5 SONSO DCT NIRAL UN871 OSDAM UM985 BARPA M985 PIMOS M445 SOPET M985 LUMAS DCT UNANA DCT STP DCT RAPED DCT PIGOS DCT EKSID DCT NOSTA DCT NOPMU DCT KOXUD DCT GIBLO DCT TAGIP DCT GUNGO DCT TISAX T102 NINUR T101 BETOS
Aircraft A320/M-SDFGHIJ1RWY/LB1

Departure

Time 2026-05-05 17:59
Airport César Manrique-Lanzarote Airport (GCRR)

Arrival

Time 2026-05-05 21:32
Airport Munich Airport (EDDM)
Time Latitude Longitude Altitude Speed Heading
2026-05-05 17:24 28.95298 -13.60533 50 ft 0 kts 298°
2026-05-05 17:50 28.95295 -13.60527 48 ft 2 kts 297°
2026-05-05 17:50 28.95287 -13.60506 45 ft 3 kts 294°
2026-05-05 17:50 28.95279 -13.60487 47 ft 3 kts 284°
2026-05-05 17:51 28.95277 -13.60466 46 ft 3 kts 244°
2026-05-05 17:51 28.95289 -13.60450 48 ft 3 kts 208°
2026-05-05 17:51 28.95305 -13.60441 48 ft 1 kts 206°
2026-05-05 17:51 28.95308 -13.60440 48 ft 0 kts 206°
2026-05-05 17:53 28.95261 -13.60466 48 ft 16 kts 206°
2026-05-05 17:54 28.95153 -13.60504 50 ft 13 kts 142°
2026-05-05 17:54 28.95094 -13.60432 50 ft 11 kts 150°
2026-05-05 17:54 28.95013 -13.60460 50 ft 17 kts 207°
2026-05-05 17:54 28.94889 -13.60532 48 ft 20 kts 207°
2026-05-05 17:55 28.94774 -13.60600 50 ft 18 kts 207°
2026-05-05 17:55 28.94670 -13.60659 49 ft 17 kts 206°
2026-05-05 17:55 28.94557 -13.60723 40 ft 20 kts 206°
2026-05-05 17:55 28.94431 -13.60796 32 ft 21 kts 207°
2026-05-05 17:56 28.94303 -13.60870 29 ft 20 kts 206°
2026-05-05 17:56 28.94180 -13.60941 27 ft 19 kts 207°
2026-05-05 17:56 28.94066 -13.61009 29 ft 18 kts 207°
2026-05-05 17:56 28.93960 -13.61070 25 ft 17 kts 207°
2026-05-05 17:57 28.93858 -13.61129 23 ft 16 kts 207°
2026-05-05 17:57 28.93759 -13.61186 23 ft 20 kts 206°
2026-05-05 17:57 28.93654 -13.61208 26 ft 12 kts 142°
2026-05-05 17:57 28.93614 -13.61121 23 ft 13 kts 112°
2026-05-05 17:58 28.93621 -13.61055 25 ft 4 kts 31°
2026-05-05 17:58 28.93626 -13.61053 25 ft 2 kts 26°
2026-05-05 17:58 28.93820 -13.60940 27 ft 67 kts 27°
2026-05-05 17:58 28.94430 -13.60590 33 ft 126 kts 26°
2026-05-05 17:59 28.95280 -13.60078 371 ft 138 kts 35°
2026-05-05 17:59 28.96044 -13.59464 1002 ft 134 kts 35°
2026-05-05 17:59 28.96803 -13.58833 1531 ft 135 kts 35°
2026-05-05 17:59 28.97590 -13.58179 1931 ft 148 kts 37°
2026-05-05 18:00 28.98502 -13.57423 1959 ft 180 kts 36°
2026-05-05 18:00 28.99579 -13.56529 2200 ft 202 kts 36°
2026-05-05 18:00 29.00768 -13.55510 2489 ft 226 kts 41°
2026-05-05 18:00 29.01914 -13.54153 2927 ft 246 kts 48°
2026-05-05 18:01 29.03003 -13.52623 3576 ft 256 kts 50°
2026-05-05 18:01 29.04114 -13.50995 4257 ft 263 kts 49°
2026-05-05 18:01 29.05248 -13.49328 4985 ft 268 kts 49°
2026-05-05 18:01 29.06418 -13.47634 5669 ft 275 kts 49°
2026-05-05 18:02 29.07629 -13.45903 6349 ft 282 kts 49°
2026-05-05 18:02 29.08880 -13.44132 6946 ft 289 kts 48°
2026-05-05 18:02 29.10377 -13.42607 7572 ft 290 kts 26°
2026-05-05 18:02 29.12205 -13.41605 8257 ft 294 kts 22°
2026-05-05 18:03 29.14052 -13.40633 8940 ft 298 kts 21°
2026-05-05 18:03 29.15948 -13.39636 9623 ft 303 kts 21°
2026-05-05 18:03 29.17879 -13.38616 10220 ft 310 kts 21°
2026-05-05 18:03 29.19908 -13.37542 10379 ft 333 kts 22°
2026-05-05 18:04 29.21881 -13.35973 10519 ft 360 kts 45°
2026-05-05 18:04 29.23472 -13.33694 10940 ft 371 kts 51°
2026-05-05 18:04 29.25043 -13.31318 11500 ft 377 kts 51°
2026-05-05 18:04 29.26633 -13.28905 12091 ft 382 kts 51°
2026-05-05 18:05 29.28222 -13.26490 12657 ft 387 kts 51°
2026-05-05 18:05 29.29856 -13.24007 13233 ft 392 kts 51°
2026-05-05 18:05 29.31509 -13.21496 13797 ft 397 kts 51°
2026-05-05 18:05 29.33182 -13.18952 14299 ft 402 kts 51°
2026-05-05 18:06 29.34878 -13.16379 14793 ft 407 kts 50°
2026-05-05 18:06 29.36011 -13.14659 15112 ft 410 kts 50°
2026-05-05 18:06 29.38329 -13.11137 15758 ft 417 kts 50°
2026-05-05 18:06 29.40061 -13.08507 16238 ft 421 kts 50°
2026-05-05 18:07 29.41835 -13.05810 16719 ft 426 kts 50°
2026-05-05 18:07 29.43624 -13.03084 17197 ft 430 kts 50°
2026-05-05 18:07 29.45434 -13.00325 17672 ft 435 kts 50°
2026-05-05 18:07 29.47263 -12.97539 18143 ft 439 kts 50°
2026-05-05 18:08 29.49111 -12.94723 18575 ft 444 kts 50°
2026-05-05 18:08 29.50976 -12.91873 18983 ft 448 kts 50°
2026-05-05 18:08 29.52853 -12.88998 19397 ft 452 kts 50°
2026-05-05 18:08 29.54750 -12.86093 19798 ft 457 kts 50°
2026-05-05 18:09 29.56639 -12.83199 20209 ft 461 kts 50°
2026-05-05 18:09 29.58573 -12.80240 20619 ft 465 kts 50°
2026-05-05 18:09 29.60526 -12.77256 21031 ft 470 kts 50°
2026-05-05 18:09 29.62497 -12.74244 21421 ft 474 kts 50°
2026-05-05 18:10 29.64483 -12.71196 21813 ft 478 kts 50°
2026-05-05 18:10 29.66484 -12.68118 22187 ft 483 kts 50°
2026-05-05 18:10 29.68501 -12.65015 22560 ft 487 kts 50°
2026-05-05 18:10 29.70534 -12.61886 22932 ft 491 kts 50°
2026-05-05 18:11 29.72565 -12.58776 23282 ft 494 kts 48°
2026-05-05 18:11 29.74895 -12.55892 23613 ft 493 kts 39°
2026-05-05 18:11 29.77398 -12.53186 23920 ft 494 kts 37°
2026-05-05 18:11 29.79974 -12.50556 24237 ft 496 kts 35°
2026-05-05 18:12 29.82591 -12.47957 24553 ft 498 kts 35°
2026-05-05 18:12 29.85225 -12.45350 24857 ft 500 kts 35°
2026-05-05 18:12 29.87857 -12.42714 25157 ft 503 kts 36°
2026-05-05 18:12 29.90487 -12.40035 25453 ft 506 kts 36°
2026-05-05 18:13 29.93074 -12.37361 25737 ft 508 kts 37°
2026-05-05 18:13 29.95706 -12.34620 26023 ft 511 kts 37°
2026-05-05 18:13 29.98342 -12.31860 26308 ft 513 kts 37°
2026-05-05 18:13 30.00992 -12.29086 26582 ft 515 kts 37°
2026-05-05 18:14 30.03658 -12.26309 26853 ft 518 kts 37°
2026-05-05 18:14 30.06340 -12.23524 27121 ft 520 kts 36°
2026-05-05 18:14 30.09036 -12.20733 27384 ft 522 kts 36°
2026-05-05 18:14 30.11710 -12.17962 27642 ft 524 kts 36°
2026-05-05 18:15 30.14423 -12.15146 27901 ft 526 kts 37°
2026-05-05 18:15 30.17150 -12.12309 28147 ft 528 kts 37°
2026-05-05 18:15 30.19886 -12.09457 28389 ft 531 kts 37°
2026-05-05 18:15 30.22630 -12.06592 28630 ft 533 kts 37°
2026-05-05 18:16 30.25385 -12.03712 28855 ft 535 kts 37°
2026-05-05 18:16 30.28151 -12.00820 29070 ft 537 kts 37°
2026-05-05 18:16 30.30928 -11.97924 29283 ft 539 kts 37°
2026-05-05 18:16 30.33717 -11.95012 29493 ft 541 kts 37°
2026-05-05 18:17 30.36478 -11.92131 29680 ft 543 kts 37°
2026-05-05 18:17 30.39286 -11.89196 29874 ft 545 kts 37°
2026-05-05 18:17 30.42103 -11.86243 30052 ft 547 kts 37°
2026-05-05 18:17 30.44926 -11.83276 30232 ft 548 kts 37°
2026-05-05 18:18 30.47748 -11.80305 30479 ft 548 kts 37°
2026-05-05 18:18 30.50571 -11.77331 30724 ft 547 kts 37°
2026-05-05 18:18 30.53385 -11.74364 30962 ft 547 kts 37°
2026-05-05 18:18 30.56160 -11.71434 31201 ft 546 kts 37°
2026-05-05 18:19 30.58969 -11.68470 31433 ft 546 kts 37°
2026-05-05 18:19 30.61782 -11.65509 31672 ft 546 kts 36°
2026-05-05 18:19 30.64594 -11.62550 31912 ft 545 kts 36°
2026-05-05 18:19 30.67397 -11.59595 32148 ft 545 kts 36°
2026-05-05 18:20 30.70201 -11.56632 32379 ft 545 kts 36°
2026-05-05 18:20 30.73003 -11.53668 32608 ft 544 kts 36°
2026-05-05 18:20 30.75804 -11.50704 32835 ft 544 kts 36°
2026-05-05 18:20 30.78603 -11.47738 33061 ft 544 kts 36°
2026-05-05 18:21 30.81396 -11.44774 33297 ft 544 kts 36°
2026-05-05 18:21 30.84149 -11.41847 33540 ft 543 kts 36°
2026-05-05 18:21 30.86933 -11.38879 33778 ft 542 kts 36°
2026-05-05 18:21 30.89712 -11.35913 33981 ft 542 kts 36°
2026-05-05 18:22 30.92494 -11.32954 34042 ft 542 kts 36°
2026-05-05 18:22 30.98058 -11.27045 34031 ft 541 kts 36°
2026-05-05 18:23 31.03609 -11.21139 34033 ft 540 kts 36°
2026-05-05 18:23 31.09111 -11.15252 34034 ft 540 kts 36°
2026-05-05 18:24 31.14641 -11.09321 34032 ft 540 kts 36°
2026-05-05 18:24 31.20168 -11.03392 34033 ft 539 kts 36°
2026-05-05 18:25 31.25680 -10.97457 34029 ft 538 kts 37°
2026-05-05 18:25 31.31151 -10.91566 34038 ft 538 kts 37°
2026-05-05 18:26 31.36648 -10.85645 34038 ft 537 kts 37°
2026-05-05 18:26 31.42140 -10.79713 34037 ft 537 kts 37°
2026-05-05 18:27 31.47622 -10.73791 34036 ft 536 kts 37°
2026-05-05 18:27 31.53063 -10.67905 34037 ft 535 kts 37°
2026-05-05 18:28 31.61249 -10.59015 34037 ft 534 kts 37°
2026-05-05 18:28 31.66691 -10.53084 34035 ft 534 kts 37°
2026-05-05 18:29 31.72132 -10.47152 34039 ft 533 kts 37°
2026-05-05 18:29 31.77528 -10.41269 34046 ft 533 kts 37°
2026-05-05 18:30 31.82957 -10.35342 34042 ft 532 kts 37°
2026-05-05 18:30 31.88360 -10.29418 34039 ft 531 kts 38°
2026-05-05 18:31 31.93755 -10.23491 34043 ft 530 kts 38°
2026-05-05 18:31 31.99140 -10.17577 34044 ft 529 kts 38°
2026-05-05 18:32 32.04488 -10.11706 34047 ft 528 kts 38°
2026-05-05 18:32 32.09858 -10.05793 34047 ft 528 kts 38°
2026-05-05 18:33 32.15209 -9.99866 34043 ft 527 kts 38°
2026-05-05 18:33 32.20507 -9.93994 34045 ft 525 kts 38°
2026-05-05 18:34 32.25828 -9.88108 34045 ft 523 kts 38°
2026-05-05 18:34 32.31128 -9.82229 34051 ft 522 kts 38°
2026-05-05 18:35 32.36414 -9.76354 34045 ft 521 kts 38°
2026-05-05 18:35 32.41647 -9.70526 34047 ft 520 kts 39°
2026-05-05 18:36 32.46900 -9.64660 34044 ft 518 kts 39°
2026-05-05 18:36 32.52130 -9.58815 34051 ft 516 kts 39°
2026-05-05 18:37 32.57339 -9.52985 34049 ft 514 kts 39°
2026-05-05 18:37 32.62526 -9.47178 34055 ft 512 kts 39°
2026-05-05 18:38 32.67649 -9.41431 34050 ft 509 kts 39°
2026-05-05 18:38 32.72780 -9.35650 34049 ft 507 kts 39°
2026-05-05 18:39 32.77895 -9.29887 34052 ft 505 kts 39°
2026-05-05 18:39 32.82981 -9.24147 34050 ft 504 kts 39°
2026-05-05 18:40 32.88012 -9.18446 34052 ft 502 kts 40°
2026-05-05 18:40 32.93054 -9.12733 34054 ft 500 kts 40°
2026-05-05 18:41 32.98077 -9.07041 34052 ft 497 kts 40°
2026-05-05 18:41 33.03079 -9.01367 34052 ft 495 kts 40°
2026-05-05 18:42 33.08014 -8.95755 34052 ft 493 kts 40°
2026-05-05 18:42 33.12953 -8.90116 34056 ft 490 kts 40°
2026-05-05 18:43 33.17872 -8.84506 34057 ft 488 kts 40°
2026-05-05 18:43 33.22769 -8.78911 34052 ft 486 kts 41°
2026-05-05 18:44 33.27603 -8.73375 34054 ft 484 kts 41°
2026-05-05 18:44 33.32451 -8.67812 34059 ft 482 kts 41°
2026-05-05 18:45 33.37274 -8.62259 34054 ft 480 kts 41°
2026-05-05 18:45 33.42085 -8.56727 34051 ft 479 kts 41°
2026-05-05 18:46 33.46846 -8.51243 34052 ft 477 kts 41°
2026-05-05 18:46 33.51616 -8.45732 34055 ft 476 kts 41°
2026-05-05 18:47 33.56373 -8.40231 34060 ft 474 kts 42°
2026-05-05 18:47 33.61102 -8.34738 34056 ft 472 kts 42°
2026-05-05 18:48 33.65785 -8.29301 34057 ft 471 kts 42°
2026-05-05 18:48 33.70491 -8.23851 34048 ft 469 kts 42°
2026-05-05 18:49 33.75178 -8.18400 34051 ft 468 kts 42°
2026-05-05 18:49 33.79847 -8.12951 34056 ft 467 kts 43°
2026-05-05 18:50 33.84503 -8.07506 34057 ft 466 kts 43°
2026-05-05 18:50 33.89114 -8.02115 34055 ft 464 kts 43°
2026-05-05 18:51 33.93737 -7.96701 34053 ft 463 kts 43°
2026-05-05 18:51 33.98338 -7.91305 34054 ft 461 kts 43°
2026-05-05 18:52 34.02923 -7.85919 34056 ft 460 kts 43°
2026-05-05 18:52 34.07463 -7.80563 34055 ft 460 kts 43°
2026-05-05 18:53 34.12042 -7.75171 34056 ft 460 kts 43°
2026-05-05 18:53 34.16615 -7.69774 34055 ft 460 kts 43°
2026-05-05 18:54 34.21150 -7.64409 34051 ft 459 kts 43°
2026-05-05 18:54 34.25708 -7.59013 34045 ft 459 kts 43°
2026-05-05 18:55 34.30260 -7.53615 34048 ft 458 kts 43°
2026-05-05 18:55 34.34796 -7.48215 34048 ft 457 kts 43°
2026-05-05 18:56 34.39330 -7.42819 34048 ft 457 kts 43°
2026-05-05 18:56 34.43831 -7.37450 34048 ft 458 kts 43°
2026-05-05 18:57 34.48365 -7.32034 34051 ft 458 kts 43°
2026-05-05 18:57 34.52897 -7.26606 34049 ft 458 kts 43°
2026-05-05 18:58 34.57428 -7.21179 34047 ft 458 kts 43°
2026-05-05 18:58 34.61929 -7.15781 34047 ft 458 kts 43°
2026-05-05 18:59 34.66465 -7.10329 34042 ft 459 kts 43°
2026-05-05 18:59 34.71005 -7.04865 34044 ft 460 kts 43°
2026-05-05 19:00 34.75550 -6.99388 34041 ft 461 kts 43°
2026-05-05 19:00 34.80069 -6.93920 34040 ft 462 kts 43°
2026-05-05 19:01 34.84631 -6.88399 34039 ft 463 kts 43°
2026-05-05 19:01 34.89202 -6.82866 34037 ft 464 kts 43°
2026-05-05 19:02 34.93775 -6.77318 34036 ft 464 kts 43°
2026-05-05 19:02 34.98347 -6.71750 34034 ft 465 kts 43°
2026-05-05 19:03 35.02895 -6.66217 34038 ft 465 kts 43°
2026-05-05 19:03 35.07478 -6.60626 34033 ft 466 kts 43°
2026-05-05 19:04 35.12063 -6.55028 34034 ft 467 kts 43°
2026-05-05 19:04 35.16624 -6.49443 34027 ft 468 kts 43°
2026-05-05 19:05 35.21218 -6.43807 34029 ft 468 kts 43°
2026-05-05 19:05 35.25818 -6.38150 34029 ft 469 kts 43°
2026-05-05 19:06 35.30425 -6.32489 34030 ft 470 kts 43°
2026-05-05 19:06 35.35006 -6.26849 34025 ft 470 kts 43°
2026-05-05 19:07 35.39619 -6.21161 34027 ft 471 kts 43°
2026-05-05 19:07 35.44229 -6.15450 34027 ft 471 kts 43°
2026-05-05 19:08 35.48842 -6.09733 34028 ft 472 kts 43°
2026-05-05 19:08 35.53431 -6.04036 34027 ft 473 kts 43°
2026-05-05 19:09 35.58060 -5.98284 34031 ft 473 kts 43°
2026-05-05 19:09 35.62686 -5.92521 34029 ft 474 kts 43°
2026-05-05 19:10 35.67316 -5.86742 34029 ft 475 kts 43°
2026-05-05 19:10 35.71922 -5.80993 34030 ft 475 kts 43°
2026-05-05 19:11 35.76561 -5.75189 34024 ft 476 kts 44°
2026-05-05 19:11 35.81194 -5.69356 34021 ft 477 kts 46°
2026-05-05 19:12 35.84958 -5.62700 34013 ft 480 kts 63°
2026-05-05 19:12 35.87932 -5.55338 34003 ft 480 kts 63°
2026-05-05 19:13 35.90919 -5.47962 34001 ft 480 kts 63°
2026-05-05 19:13 35.93899 -5.40587 34002 ft 481 kts 63°
2026-05-05 19:14 35.96875 -5.33192 34002 ft 481 kts 63°
2026-05-05 19:14 35.99825 -5.25833 34003 ft 482 kts 63°
2026-05-05 19:15 36.02837 -5.18437 33999 ft 482 kts 62°
2026-05-05 19:15 36.05942 -5.11098 33990 ft 483 kts 61°
2026-05-05 19:16 36.09063 -5.03742 33983 ft 483 kts 62°
2026-05-05 19:16 36.12131 -4.96407 33976 ft 484 kts 62°
2026-05-05 19:17 36.15474 -4.89192 33971 ft 483 kts 51°
2026-05-05 19:17 36.19992 -4.83065 33963 ft 482 kts 44°
2026-05-05 19:18 36.24671 -4.77112 33963 ft 483 kts 44°
2026-05-05 19:18 36.29357 -4.71126 33955 ft 484 kts 44°
2026-05-05 19:19 36.34018 -4.65161 33956 ft 485 kts 44°
2026-05-05 19:19 36.38715 -4.59144 33953 ft 486 kts 44°
2026-05-05 19:20 36.43418 -4.53104 33946 ft 487 kts 44°
2026-05-05 19:20 36.48094 -4.47087 33947 ft 488 kts 44°
2026-05-05 19:21 36.52808 -4.41015 33946 ft 488 kts 44°
2026-05-05 19:21 36.57525 -4.34930 33947 ft 489 kts 44°
2026-05-05 19:22 36.62242 -4.28824 33947 ft 490 kts 44°
2026-05-05 19:22 36.66963 -4.22701 33945 ft 490 kts 44°
2026-05-05 19:23 36.71655 -4.16610 33946 ft 491 kts 44°
2026-05-05 19:23 36.76382 -4.10462 33949 ft 491 kts 44°
2026-05-05 19:24 36.81115 -4.04293 33949 ft 493 kts 44°
2026-05-05 19:24 36.85854 -3.98106 33968 ft 494 kts 44°
2026-05-05 19:25 36.90566 -3.91939 33970 ft 495 kts 44°
2026-05-05 19:25 36.95323 -3.85700 33972 ft 496 kts 44°
2026-05-05 19:26 37.00086 -3.79453 33996 ft 497 kts 44°
2026-05-05 19:26 37.04866 -3.73179 33994 ft 498 kts 44°
2026-05-05 19:27 37.09603 -3.66928 33992 ft 499 kts 44°
2026-05-05 19:27 37.14375 -3.60620 34004 ft 499 kts 44°
2026-05-05 19:28 37.19158 -3.54301 33996 ft 500 kts 44°
2026-05-05 19:28 37.23939 -3.47949 34000 ft 501 kts 44°
2026-05-05 19:29 37.28716 -3.41587 33992 ft 501 kts 44°
2026-05-05 19:29 37.33475 -3.35249 33991 ft 502 kts 44°
2026-05-05 19:30 37.38266 -3.28868 33988 ft 502 kts 44°
2026-05-05 19:30 37.43049 -3.22479 33986 ft 502 kts 44°
2026-05-05 19:31 37.47831 -3.16074 33982 ft 502 kts 44°
2026-05-05 19:31 37.52568 -3.09707 33976 ft 502 kts 44°
2026-05-05 19:32 37.57337 -3.03284 33975 ft 502 kts 44°
2026-05-05 19:32 37.62135 -2.96887 33973 ft 502 kts 43°
2026-05-05 19:33 37.66986 -2.90551 33976 ft 502 kts 43°
2026-05-05 19:33 37.71797 -2.84258 33974 ft 502 kts 43°
2026-05-05 19:34 37.76618 -2.77887 33973 ft 502 kts 43°
2026-05-05 19:35 37.83840 -2.68306 33978 ft 502 kts 43°
2026-05-05 19:35 37.88625 -2.61953 33981 ft 502 kts 43°
2026-05-05 19:36 37.93441 -2.55549 33982 ft 502 kts 43°
2026-05-05 19:36 37.98257 -2.49139 33982 ft 502 kts 43°
2026-05-05 19:37 38.03067 -2.42709 33981 ft 502 kts 43°
2026-05-05 19:37 38.07837 -2.36313 33983 ft 503 kts 43°
2026-05-05 19:38 38.12644 -2.29863 33973 ft 503 kts 43°
2026-05-05 19:38 38.17453 -2.23404 33966 ft 503 kts 43°
2026-05-05 19:39 38.22129 -2.16769 33969 ft 506 kts 49°
2026-05-05 19:39 38.26460 -2.09773 33961 ft 507 kts 49°
2026-05-05 19:40 38.30834 -2.02709 33960 ft 508 kts 49°
2026-05-05 19:40 38.35207 -1.95632 33953 ft 509 kts 49°
2026-05-05 19:41 38.39580 -1.88532 33946 ft 510 kts 49°
2026-05-05 19:41 38.43924 -1.81462 33945 ft 510 kts 49°
2026-05-05 19:42 38.48298 -1.74332 33940 ft 511 kts 49°
2026-05-05 19:42 38.52675 -1.67179 33938 ft 511 kts 49°
2026-05-05 19:43 38.57046 -1.60019 33940 ft 511 kts 49°
2026-05-05 19:43 38.61395 -1.52897 33948 ft 512 kts 49°
2026-05-05 19:44 38.65776 -1.45708 33945 ft 512 kts 49°
2026-05-05 19:44 38.70144 -1.38500 33947 ft 513 kts 49°
2026-05-05 19:45 38.74508 -1.31271 33952 ft 513 kts 49°
2026-05-05 19:45 38.78852 -1.24081 33950 ft 514 kts 49°
2026-05-05 19:46 38.83230 -1.16830 33947 ft 514 kts 49°
2026-05-05 19:46 38.87605 -1.09570 33947 ft 514 kts 49°
2026-05-05 19:47 38.91968 -1.02289 33942 ft 515 kts 50°
2026-05-05 19:47 38.96297 -0.95036 33937 ft 515 kts 50°
2026-05-05 19:48 39.00661 -0.87724 33933 ft 515 kts 50°
2026-05-05 19:48 39.05026 -0.80401 33929 ft 516 kts 50°
2026-05-05 19:49 39.09830 -0.73626 33928 ft 511 kts 39°
2026-05-05 19:49 39.14987 -0.67306 33919 ft 512 kts 39°
2026-05-05 19:50 39.20107 -0.61014 33922 ft 512 kts 39°
2026-05-05 19:50 39.25253 -0.54656 33918 ft 513 kts 40°
2026-05-05 19:51 39.30403 -0.48282 33916 ft 513 kts 40°
2026-05-05 19:51 39.35515 -0.41948 33922 ft 513 kts 40°
2026-05-05 19:52 39.40665 -0.35547 33920 ft 514 kts 40°
2026-05-05 19:52 39.45816 -0.29131 33921 ft 514 kts 40°
2026-05-05 19:53 39.50964 -0.22716 33921 ft 514 kts 40°
2026-05-05 19:53 39.56111 -0.16285 33923 ft 514 kts 40°
2026-05-05 19:54 39.61215 -0.09888 33924 ft 514 kts 40°
2026-05-05 19:54 39.66347 -0.03437 33930 ft 514 kts 40°
2026-05-05 19:55 39.71490 0.03027 33938 ft 515 kts 40°
2026-05-05 19:55 39.76635 0.09501 33942 ft 515 kts 40°
2026-05-05 19:56 39.81731 0.15939 33946 ft 515 kts 40°
2026-05-05 19:56 39.86862 0.22445 33952 ft 515 kts 40°
2026-05-05 19:57 39.91988 0.28959 33954 ft 515 kts 40°
2026-05-05 19:57 39.97123 0.35489 33956 ft 515 kts 40°
2026-05-05 19:58 40.02219 0.41982 33961 ft 516 kts 41°
2026-05-05 19:58 40.07349 0.48539 33959 ft 516 kts 41°
2026-05-05 19:59 40.12473 0.55108 33961 ft 516 kts 41°
2026-05-05 19:59 40.17600 0.61688 33954 ft 517 kts 41°
2026-05-05 20:00 40.22695 0.68235 33957 ft 517 kts 41°
2026-05-05 20:00 40.27821 0.74850 33959 ft 517 kts 41°
2026-05-05 20:01 40.32950 0.81473 33957 ft 518 kts 41°
2026-05-05 20:01 40.38079 0.88108 33954 ft 518 kts 41°
2026-05-05 20:02 40.43174 0.94715 33959 ft 519 kts 41°
2026-05-05 20:02 40.48301 1.01394 33965 ft 519 kts 41°
2026-05-05 20:03 40.53420 1.08079 33952 ft 519 kts 41°
2026-05-05 20:03 40.58538 1.14766 33955 ft 519 kts 41°
2026-05-05 20:04 40.63630 1.21418 33943 ft 519 kts 41°
2026-05-05 20:04 40.68748 1.28141 33949 ft 520 kts 41°
2026-05-05 20:05 40.73861 1.34878 33943 ft 520 kts 41°
2026-05-05 20:05 40.78982 1.41634 33943 ft 521 kts 41°
2026-05-05 20:06 40.84061 1.48357 33938 ft 521 kts 41°
2026-05-05 20:06 40.89176 1.55133 33937 ft 521 kts 42°
2026-05-05 20:07 40.94294 1.61924 33932 ft 521 kts 42°
2026-05-05 20:07 40.99406 1.68725 33932 ft 521 kts 42°
2026-05-05 20:08 41.04484 1.75503 33934 ft 522 kts 42°
2026-05-05 20:08 41.09588 1.82339 33931 ft 522 kts 42°
2026-05-05 20:09 41.14698 1.89182 33940 ft 522 kts 42°
2026-05-05 20:09 41.19809 1.96042 33944 ft 523 kts 43°
2026-05-05 20:10 41.24917 2.02925 33951 ft 523 kts 43°
2026-05-05 20:10 41.29423 2.10439 33948 ft 526 kts 60°
2026-05-05 20:11 41.32234 2.19382 33947 ft 524 kts 78°
2026-05-05 20:11 41.33954 2.28797 33939 ft 524 kts 79°
2026-05-05 20:12 41.35612 2.38174 33933 ft 524 kts 80°
2026-05-05 20:12 41.37255 2.47613 33925 ft 524 kts 80°
2026-05-05 20:13 41.38901 2.57053 33915 ft 523 kts 80°
2026-05-05 20:13 41.40542 2.66502 33917 ft 524 kts 80°
2026-05-05 20:14 41.42186 2.75971 33914 ft 525 kts 80°
2026-05-05 20:14 41.43809 2.85385 33914 ft 525 kts 80°
2026-05-05 20:15 41.45436 2.94876 33913 ft 525 kts 80°
2026-05-05 20:15 41.47051 3.04372 33907 ft 525 kts 81°
2026-05-05 20:16 41.48641 3.13815 33907 ft 525 kts 81°
2026-05-05 20:16 41.50235 3.23315 33909 ft 525 kts 81°
2026-05-05 20:17 41.51830 3.32810 33910 ft 524 kts 81°
2026-05-05 20:17 41.53421 3.42305 33904 ft 524 kts 81°
2026-05-05 20:18 41.55001 3.51799 33906 ft 523 kts 81°
2026-05-05 20:18 41.56545 3.61218 33915 ft 522 kts 81°
2026-05-05 20:19 41.58082 3.70680 33904 ft 521 kts 81°
2026-05-05 20:19 41.59614 3.80120 33908 ft 520 kts 81°
2026-05-05 20:20 41.61146 3.89552 33907 ft 519 kts 81°
2026-05-05 20:20 41.62659 3.98911 33905 ft 518 kts 82°
2026-05-05 20:21 41.64171 4.08324 33906 ft 518 kts 82°
2026-05-05 20:21 41.65677 4.17736 33910 ft 517 kts 82°
2026-05-05 20:22 41.67163 4.27078 33905 ft 517 kts 82°
2026-05-05 20:22 41.68643 4.36483 33905 ft 517 kts 82°
2026-05-05 20:23 41.70117 4.45893 33906 ft 517 kts 82°
2026-05-05 20:23 41.71581 4.55314 33905 ft 517 kts 83°
2026-05-05 20:24 41.73788 4.64515 33907 ft 524 kts 65°
2026-05-05 20:24 41.77861 4.72539 33904 ft 527 kts 46°
2026-05-05 20:25 41.83055 4.79460 33904 ft 527 kts 43°
2026-05-05 20:25 41.88269 4.86365 33904 ft 527 kts 43°
2026-05-05 20:26 41.93489 4.93298 33902 ft 528 kts 43°
2026-05-05 20:26 41.98673 5.00189 33905 ft 528 kts 43°
2026-05-05 20:27 42.03900 5.07140 33906 ft 529 kts 43°
2026-05-05 20:27 42.09121 5.14117 33902 ft 529 kts 44°
2026-05-05 20:28 42.14332 5.21113 33902 ft 529 kts 44°
2026-05-05 20:28 42.19506 5.28062 33906 ft 529 kts 44°
2026-05-05 20:29 42.24712 5.35073 33904 ft 529 kts 44°
2026-05-05 20:29 42.29922 5.42102 33905 ft 529 kts 44°
2026-05-05 20:30 42.34251 5.47948 33910 ft 530 kts 44°
2026-05-05 20:30 42.40311 5.56148 33909 ft 530 kts 44°
2026-05-05 20:31 42.45516 5.63226 33909 ft 531 kts 44°
2026-05-05 20:31 42.50716 5.70328 33911 ft 531 kts 44°
2026-05-05 20:32 42.55918 5.77448 33913 ft 532 kts 45°
2026-05-05 20:32 42.61097 5.84534 33915 ft 532 kts 45°
2026-05-05 20:33 42.66309 5.91690 33919 ft 533 kts 45°
2026-05-05 20:33 42.71523 5.98866 33921 ft 534 kts 45°
2026-05-05 20:34 42.75855 6.04841 33928 ft 534 kts 45°
2026-05-05 20:34 42.81916 6.13214 33937 ft 534 kts 45°
2026-05-05 20:35 42.87085 6.20488 33944 ft 535 kts 47°
2026-05-05 20:35 42.91189 6.26798 33943 ft 535 kts 50°
2026-05-05 20:36 42.95959 6.34579 33943 ft 535 kts 51°
2026-05-05 20:36 43.01548 6.43604 33946 ft 535 kts 50°
2026-05-05 20:37 43.05635 6.50052 33941 ft 536 kts 50°
2026-05-05 20:37 43.10493 6.57692 33942 ft 536 kts 50°
2026-05-05 20:38 43.15358 6.65423 33941 ft 536 kts 50°
2026-05-05 20:38 43.20989 6.74440 33938 ft 536 kts 50°
2026-05-05 20:39 43.25051 6.80938 33945 ft 536 kts 50°
2026-05-05 20:39 43.29866 6.88650 33954 ft 536 kts 50°
2026-05-05 20:40 43.34697 6.96432 33960 ft 535 kts 50°
2026-05-05 20:40 43.39529 7.04231 33964 ft 535 kts 50°
2026-05-05 20:41 43.44351 7.12032 33968 ft 536 kts 50°
2026-05-05 20:41 43.49144 7.19800 33966 ft 536 kts 50°
2026-05-05 20:42 43.53967 7.27636 33970 ft 536 kts 51°
2026-05-05 20:42 43.58776 7.35486 33970 ft 536 kts 51°
2026-05-05 20:43 43.63585 7.43347 33966 ft 536 kts 51°
2026-05-05 20:43 43.68356 7.51163 33960 ft 536 kts 51°
2026-05-05 20:44 43.73151 7.59045 33956 ft 536 kts 51°
2026-05-05 20:44 43.78301 7.66459 33955 ft 535 kts 40°
2026-05-05 20:45 43.86701 7.76639 33954 ft 535 kts 40°
2026-05-05 20:45 43.92254 7.83384 33963 ft 534 kts 40°
2026-05-05 20:46 43.97827 7.90193 33957 ft 534 kts 40°
2026-05-05 20:46 44.03393 7.97001 33970 ft 533 kts 40°
2026-05-05 20:47 44.08964 8.03805 33969 ft 533 kts 40°
2026-05-05 20:47 44.14489 8.10585 33970 ft 533 kts 40°
2026-05-05 20:48 44.20042 8.17439 33970 ft 533 kts 40°
2026-05-05 20:48 44.25595 8.24308 33975 ft 534 kts 40°
2026-05-05 20:49 44.31152 8.31186 33973 ft 534 kts 41°
2026-05-05 20:49 44.36668 8.38028 33973 ft 534 kts 40°
2026-05-05 20:50 44.42211 8.44915 33978 ft 534 kts 40°
2026-05-05 20:50 44.47745 8.51833 33975 ft 533 kts 41°
2026-05-05 20:51 44.53274 8.58761 33979 ft 533 kts 40°
2026-05-05 20:51 44.58801 8.65691 33976 ft 532 kts 40°
2026-05-05 20:52 44.64273 8.72573 33977 ft 532 kts 40°
2026-05-05 20:52 44.69786 8.79524 33980 ft 532 kts 40°
2026-05-05 20:53 44.75284 8.86483 33983 ft 532 kts 41°
2026-05-05 20:53 44.80780 8.93458 33977 ft 531 kts 40°
2026-05-05 20:54 44.86264 9.00428 33976 ft 531 kts 40°
2026-05-05 20:54 44.91710 9.07367 33977 ft 531 kts 41°
2026-05-05 20:55 44.97182 9.14365 33971 ft 531 kts 41°
2026-05-05 20:55 45.02676 9.21409 33972 ft 538 kts 40°
2026-05-05 20:56 45.08255 9.28581 33974 ft 546 kts 41°
2026-05-05 20:56 45.13771 9.35693 33977 ft 534 kts 41°
2026-05-05 20:57 45.19239 9.42761 33983 ft 531 kts 41°
2026-05-05 20:57 45.24687 9.49825 33985 ft 531 kts 41°
2026-05-05 20:58 45.30127 9.56899 33991 ft 531 kts 41°
2026-05-05 20:58 45.35573 9.63994 34053 ft 530 kts 41°
2026-05-05 20:59 45.40968 9.71035 34061 ft 530 kts 41°
2026-05-05 20:59 45.46398 9.78150 34057 ft 530 kts 41°
2026-05-05 21:00 45.51825 9.85276 34003 ft 530 kts 41°
2026-05-05 21:00 45.57243 9.92413 34004 ft 530 kts 41°
2026-05-05 21:01 45.62647 9.99561 34003 ft 530 kts 41°
2026-05-05 21:01 45.68434 10.05912 34007 ft 521 kts 22°
2026-05-05 21:02 45.74833 10.10625 34011 ft 521 kts 22°
2026-05-05 21:02 45.81262 10.15374 34009 ft 519 kts 22°
2026-05-05 21:03 45.87675 10.20121 34007 ft 518 kts 22°
2026-05-05 21:03 45.94082 10.24854 34009 ft 517 kts 22°
2026-05-05 21:04 46.00437 10.29558 33997 ft 516 kts 22°
2026-05-05 21:04 46.06799 10.34304 33999 ft 515 kts 22°
2026-05-05 21:05 46.13155 10.39048 33990 ft 514 kts 22°
2026-05-05 21:05 46.19494 10.43792 33999 ft 513 kts 22°
2026-05-05 21:06 46.25774 10.48497 33993 ft 511 kts 23°
2026-05-05 21:06 46.32083 10.53238 33988 ft 510 kts 23°
2026-05-05 21:07 46.38383 10.57995 33982 ft 510 kts 23°
2026-05-05 21:07 46.44676 10.62747 33969 ft 510 kts 23°
2026-05-05 21:08 46.50959 10.67500 33983 ft 509 kts 23°
2026-05-05 21:08 46.57192 10.72249 33965 ft 509 kts 23°
2026-05-05 21:09 46.63461 10.77026 33957 ft 509 kts 23°
2026-05-05 21:09 46.66598 10.79415 33731 ft 507 kts 24°
2026-05-05 21:09 46.69702 10.81785 33360 ft 502 kts 24°
2026-05-05 21:10 46.72779 10.84139 32939 ft 497 kts 24°
2026-05-05 21:10 46.75851 10.86492 32557 ft 505 kts 24°
2026-05-05 21:10 46.78999 10.88900 32156 ft 514 kts 25°
2026-05-05 21:10 46.82131 10.91304 31777 ft 515 kts 25°
2026-05-05 21:11 46.85290 10.93738 31385 ft 512 kts 25°
2026-05-05 21:11 46.88425 10.96158 30997 ft 508 kts 25°
2026-05-05 21:11 46.91538 10.98548 30628 ft 503 kts 24°
2026-05-05 21:11 46.94774 11.00332 30262 ft 493 kts 11°
2026-05-05 21:12 46.98084 11.01523 29953 ft 488 kts 10°
2026-05-05 21:12 47.01382 11.02698 29908 ft 487 kts 11°
2026-05-05 21:12 47.07926 11.04992 29906 ft 486 kts 10°
2026-05-05 21:13 47.14511 11.07262 29896 ft 486 kts 11°
2026-05-05 21:13 47.21084 11.09540 29898 ft 485 kts 11°
2026-05-05 21:14 47.27668 11.11837 29888 ft 487 kts 11°
2026-05-05 21:14 47.33149 11.13756 29894 ft 487 kts 11°
2026-05-05 21:15 47.34893 11.14359 29632 ft 485 kts 10°
2026-05-05 21:15 47.38163 11.15487 29292 ft 483 kts 11°
2026-05-05 21:15 47.41428 11.16637 28768 ft 481 kts 11°
2026-05-05 21:16 47.44661 11.17792 28244 ft 476 kts 11°
2026-05-05 21:16 47.47872 11.18945 27733 ft 473 kts 11°
2026-05-05 21:16 47.51016 11.20067 27235 ft 469 kts 11°
2026-05-05 21:16 47.54181 11.21188 26745 ft 466 kts 11°
2026-05-05 21:17 47.57321 11.22298 26262 ft 462 kts 11°
2026-05-05 21:17 47.60439 11.23399 25789 ft 459 kts 11°
2026-05-05 21:17 47.63492 11.24763 25285 ft 459 kts 22°
2026-05-05 21:17 47.66227 11.27160 24703 ft 457 kts 38°
2026-05-05 21:18 47.68665 11.30183 24143 ft 459 kts 40°
2026-05-05 21:18 47.71099 11.33261 23579 ft 460 kts 40°
2026-05-05 21:18 47.73521 11.36349 22893 ft 457 kts 40°
2026-05-05 21:18 47.75892 11.39381 22182 ft 455 kts 40°
2026-05-05 21:19 47.78286 11.42441 21471 ft 453 kts 40°
2026-05-05 21:19 47.80675 11.45490 20778 ft 451 kts 40°
2026-05-05 21:19 47.83050 11.48518 20185 ft 447 kts 40°
2026-05-05 21:19 47.85395 11.51510 19669 ft 441 kts 40°
2026-05-05 21:20 47.87711 11.54466 19155 ft 436 kts 40°
2026-05-05 21:20 47.90003 11.57396 18663 ft 432 kts 40°
2026-05-05 21:20 47.92240 11.60261 18166 ft 427 kts 40°
2026-05-05 21:20 47.94483 11.63141 17610 ft 423 kts 40°
2026-05-05 21:21 47.96700 11.65991 17052 ft 420 kts 40°
2026-05-05 21:21 47.98902 11.68825 16499 ft 416 kts 40°
2026-05-05 21:21 48.01084 11.71632 15956 ft 412 kts 40°
2026-05-05 21:21 48.03245 11.74422 15432 ft 409 kts 40°
2026-05-05 21:22 48.05385 11.77188 14898 ft 405 kts 40°
2026-05-05 21:22 48.07506 11.79933 14401 ft 401 kts 40°
2026-05-05 21:22 48.09611 11.82658 13898 ft 398 kts 40°
2026-05-05 21:22 48.11666 11.85314 13378 ft 394 kts 40°
2026-05-05 21:23 48.13728 11.87982 12824 ft 390 kts 40°
2026-05-05 21:23 48.15758 11.90611 12268 ft 378 kts 40°
2026-05-05 21:23 48.17699 11.93130 11736 ft 361 kts 40°
2026-05-05 21:23 48.19558 11.95552 11210 ft 347 kts 40°
2026-05-05 21:24 48.21349 11.97884 10687 ft 335 kts 39°
2026-05-05 21:24 48.23081 12.00145 10186 ft 325 kts 39°
2026-05-05 21:24 48.24758 12.02339 9668 ft 316 kts 39°
2026-05-05 21:24 48.26374 12.04455 9129 ft 308 kts 39°
2026-05-05 21:25 48.27971 12.06542 8585 ft 301 kts 39°
2026-05-05 21:25 48.29583 12.08477 8052 ft 293 kts 35°
2026-05-05 21:25 48.31189 12.10305 7520 ft 287 kts 34°
2026-05-05 21:25 48.32771 12.12097 6919 ft 284 kts 34°
2026-05-05 21:26 48.34382 12.13780 6289 ft 279 kts 22°
2026-05-05 21:26 48.36180 12.14356 5966 ft 255 kts 352°
2026-05-05 21:26 48.37849 12.13831 5636 ft 239 kts 339°
2026-05-05 21:26 48.39255 12.12781 5359 ft 219 kts 309°
2026-05-05 21:27 48.39816 12.10842 5196 ft 200 kts 267°
2026-05-05 21:27 48.39313 12.08974 5001 ft 194 kts 233°
2026-05-05 21:27 48.38564 12.07340 4737 ft 186 kts 255°
2026-05-05 21:27 48.38468 12.05474 4536 ft 176 kts 266°
2026-05-05 21:28 48.38328 12.03674 4305 ft 170 kts 263°
2026-05-05 21:28 48.38185 12.01931 4084 ft 166 kts 263°
2026-05-05 21:28 48.38053 12.00227 3866 ft 162 kts 264°
2026-05-05 21:28 48.37931 11.98616 3654 ft 148 kts 264°
2026-05-05 21:29 48.37818 11.97111 3468 ft 142 kts 264°
2026-05-05 21:29 48.37711 11.95680 3302 ft 139 kts 264°
2026-05-05 21:29 48.37603 11.94246 3112 ft 137 kts 264°
2026-05-05 21:29 48.37496 11.92822 2932 ft 137 kts 264°
2026-05-05 21:30 48.37390 11.91405 2751 ft 136 kts 264°
2026-05-05 21:30 48.37283 11.89995 2563 ft 135 kts 263°
2026-05-05 21:30 48.37177 11.88585 2377 ft 136 kts 263°
2026-05-05 21:30 48.37070 11.87165 2177 ft 136 kts 264°
2026-05-05 21:31 48.36963 11.85758 1990 ft 138 kts 263°
2026-05-05 21:31 48.36856 11.84342 1799 ft 135 kts 263°
2026-05-05 21:31 48.36753 11.82929 1621 ft 136 kts 264°
2026-05-05 21:31 48.36647 11.81545 1489 ft 125 kts 262°
2026-05-05 21:32 48.36559 11.80420 1481 ft 94 kts 263°
2026-05-05 21:32 48.36491 11.79548 1485 ft 75 kts 263°
2026-05-05 21:32 48.36436 11.78827 1478 ft 65 kts 263°
2026-05-05 21:32 48.36394 11.78290 1473 ft 31 kts 260°
2026-05-05 21:33 48.36319 11.78045 1482 ft 29 kts 237°
2026-05-05 21:33 48.36194 11.77794 1485 ft 27 kts 232°
2026-05-05 21:33 48.36068 11.77663 1485 ft 21 kts 173°
2026-05-05 21:33 48.35921 11.77682 1474 ft 21 kts 174°
2026-05-05 21:34 48.35777 11.77706 1484 ft 21 kts 173°
2026-05-05 21:34 48.35627 11.77733 1485 ft 22 kts 173°
2026-05-05 21:34 48.35467 11.77761 1482 ft 24 kts 173°
2026-05-05 21:34 48.35346 11.77818 1481 ft 15 kts 115°
2026-05-05 21:35 48.35341 11.77963 1485 ft 13 kts 84°
2026-05-05 21:35 48.35349 11.78092 1477 ft 11 kts 95°
2026-05-05 21:35 48.35309 11.78173 1482 ft 8 kts 128°
2026-05-05 21:35 48.35309 11.78251 1484 ft 7 kts 84°
2026-05-05 21:36 48.35312 11.78296 1478 ft 2 kts 83°
2026-05-05 21:36 48.35313 11.78305 1485 ft 0 kts 83°
2026-05-05 21:36 48.35313 11.78306 1485 ft 0 kts 83°